EW5321 Weather Reports


Display with metric or nautical units.
time (UTC)temp
F
wind
direction
speed
MPH
gust
MPH
rain 1hr
in
rain 24hr
in
rain mn
in
humidity
%
barometer
mb
20260504044657 49 238 6.0 8.0 0.00 0.01 0.00 56 1009.5
20260504043617 49 236 5.0 7.0 0.00 0.01 0.00 57 1009.6
20260504042619 49 238 5.0 7.0 0.00 0.01 0.00 56 1009.6
20260504041617 50 246 4.0 6.0 0.00 0.01 0.00 56 1009.7
20260504040618 51 239 3.0 4.0 0.00 0.01 0.00 54 1009.7
20260504035618 51 247 4.0 6.0 0.00 0.01 0.01 54 1009.7
20260504034639 52 264 3.0 4.0 0.00 0.01 0.01 53 1009.6
20260504033618 52 246 3.0 4.0 0.00 0.01 0.01 53 1009.6
20260504032616 52 268 3.0 3.0 0.00 0.01 0.01 54 1009.7
20260504031616 52 279 3.0 3.0 0.00 0.01 0.01 52 1009.8
20260504030616 52 225 3.0 4.0 0.00 0.01 0.01 53 1010.0
20260504025616 52 251 2.0 2.0 0.00 0.01 0.01 55 1010.1
20260504024616 52 266 2.0 3.0 0.00 0.01 0.01 54 1010.2
20260504023616 52 278 2.0 3.0 0.00 0.01 0.01 55 1010.2
20260504022617 53 269 1.0 2.0 0.00 0.01 0.01 52 1010.2
20260504021617 53 256 4.0 6.0 0.00 0.01 0.01 52 1010.1
20260504020637 54 234 4.0 6.0 0.00 0.01 0.01 51 1010.1
20260504015617 54 247 6.0 11.0 0.00 0.01 0.01 49 1010.1
20260504014617 54 241 7.0 11.0 0.00 0.01 0.01 48 1010.2
20260504013617 54 244 9.0 14.0 0.00 0.01 0.01 49 1010.1
20260504012618 54 261 3.0 7.0 0.00 0.01 0.01 48 1010.1
20260504011638 54 236 4.0 7.0 0.00 0.01 0.01 49 1010.1
20260504010638 54 206 2.0 3.0 0.00 0.01 0.01 49 1010.1
20260504005618 54 78 3.0 5.0 0.00 0.01 0.01 50 1010.0
20260504004639 54 234 6.0 10.0 0.00 0.01 0.01 49 1010.1
20260504003659 54 243 10.0 17.0 0.00 0.01 0.01 48 1009.9
20260504002616 53 244 4.0 7.0 0.00 0.01 0.01 48 1009.9
20260504001616 52 293 2.0 3.0 0.00 0.01 0.01 58 1010.0
20260504000616 53 266 2.0 2.0 0.00 0.01 0.01 54 1009.6
20260503235616 54 307 2.0 2.0 0.00 0.01 0.01 51 1009.5
20260503234617 54 32 1.0 3.0 0.00 0.01 0.01 51 1009.5
20260503233617 55 233 7.0 8.0 0.00 0.01 0.01 48 1009.5
20260503232617 55 246 5.0 9.0 0.00 0.01 0.01 49 1009.6
20260503231617 55 23 3.0 7.0 0.00 0.01 0.01 48 1009.6
20260503230617 55 244 13.0 16.0 0.00 0.01 0.01 46 1009.3
20260503225618 56 263 5.0 10.0 0.00 0.01 0.01 47 1009.3
20260503224617 56 249 5.0 10.0 0.00 0.01 0.01 46 1009.1
20260503223618 56 293 1.0 3.0 0.00 0.01 0.01 50 1009.1
20260503222638 56 261 3.0 6.0 0.00 0.01 0.01 49 1009.1
20260503221617 56 246 8.0 10.0 0.00 0.01 0.01 48 1009.0
20260503220618 56 244 6.0 8.0 0.00 0.01 0.01 49 1009.3
20260503215638 56 264 4.0 9.0 0.00 0.01 0.01 48 1009.3
20260503214616 56 254 6.0 8.0 0.00 0.01 0.01 49 1009.2
20260503213636 56 254 5.0 7.0 0.00 0.01 0.01 47 1009.2
20260503212616 57 223 4.0 8.0 0.00 0.01 0.01 46 1009.1
20260503211616 58 276 5.0 11.0 0.00 0.01 0.01 47 1009.1
20260503210616 58 286 4.0 9.0 0.00 0.01 0.01 45 1009.1
20260503205616 57 292 3.0 4.0 0.00 0.01 0.01 46 1009.3
20260503204637 56 273 4.0 7.0 0.00 0.01 0.01 46 1009.3
20260503203617 56 246 6.0 8.0 0.00 0.01 0.01 48 1009.5
20260503202617 56 241 4.0 7.0 0.00 0.01 0.01 47 1009.6
20260503201617 56 237 10.0 13.0 0.00 0.01 0.01 47 1009.7
20260503200617 57 348 2.0 4.0 0.00 0.01 0.01 47 1009.8
20260503195617 56 239 4.0 8.0 0.00 0.01 0.01 47 1009.9
20260503194617 56 316 2.0 5.0 0.00 0.01 0.01 47 1010.1
20260503193639 54 236 6.0 8.0 0.00 0.01 0.01 47 1010.3
20260503192618 54 274 3.0 7.0 0.00 0.01 0.01 47 1010.5
20260503191618 54 239 8.0 9.0 0.01 0.01 0.01 50 1010.7
20260503190639 54 256 5.0 8.0 0.01 0.01 0.01 49 1010.7
20260503185618 55 340 5.0 9.0 0.01 0.01 0.01 47 1010.7
20260503184615 55 14 5.0 8.0 0.01 0.01 0.01 48 1010.6
20260503183616 55 268 6.0 10.0 0.01 0.01 0.01 46 1010.8
20260503182617 56 336 6.0 10.0 0.01 0.01 0.01 45 1010.9
20260503181636 56 292 5.0 8.0 0.00 0.00 0.00 46 1010.8
20260503180616 56 346 5.0 8.0 0.00 0.00 0.00 46 1010.9
20260503175616 56 269 3.0 8.0 0.00 0.00 0.00 45 1010.8
20260503174657 54 351 5.0 7.0 0.00 0.00 0.00 47 1010.7
20260503173617 54 242 6.0 10.0 0.00 0.00 0.00 45 1010.9
20260503172617 54 16 5.0 9.0 0.00 0.00 0.00 44 1011.0
20260503171617 54 273 4.0 7.0 0.00 0.00 0.00 45 1011.1
20260503170637 55 259 4.0 10.0 0.00 0.00 0.00 46 1011.1
20260503150616 49 238 5.0 8.0 0.00 0.00 0.00 54 1012.6
20260503130616 45 125 2.0 4.0 0.00 0.00 0.00 57 1013.0
20260503110638 38 294 1.0 2.0 0.00 0.00 0.00 77 1013.0
20260503081618 37 277 1.0 2.0 0.00 0.00 0.00 79 1012.6
20260503080616 37 280 0.0 2.0 0.00 0.00 0.00 79 1012.6
20260503072616 38 246 0.0 1.0 0.00 0.00 0.00 79 1012.6
20260503071616 38 271 1.0 3.0 0.00 0.00 0.00 79 1012.6
20260503070616 38 291 2.0 2.0 0.00 0.00 0.00 79 1012.6
20260503054617 38 333 1.0 2.0 0.00 0.00 0.00 77 1012.8
20260503053617 38 243 1.0 3.0 0.00 0.00 0.00 77 1012.9
20260503052618 38 303 1.0 2.0 0.00 0.00 0.00 76 1013.0
20260503051638 38 248 1.0 2.0 0.00 0.00 0.00 77 1013.0
20260503050616 38 257 0.0 1.0 0.00 0.00 0.00 76 1013.2
20260503045616 38 298 1.0 2.0 0.00 0.00 0.00 76 1013.3